Regional Weather Roundup
Issued by NWS

Home | Current Version | Previous Version | Graphics & Text | Print | Product List | Glossary On
Versions: 1 2 3 4 5 6 7 8 9 10 11 12 13 14 15 16 17 18 19 20 21 22 23 24 25 26 27 28 29 30 31 32 33 34 35 36 37 38 39 40 41 42 43 44 45 46 47 48 49 50
000
ASUS45 KTFX 251710
RWRMT
MONTANA REGIONAL WEATHER ROUNDUP
NATIONAL WEATHER SERVICE GREAT FALLS MT
1100 AM MDT TUE APR 25 2017

NOTE: "FAIR" INDICATES FEW OR NO CLOUDS BELOW 12000 FEET WITH NO
SIGNIFICANT WEATHER AND/OR OBSTRUCTIONS TO VISIBILITY.

MTZ001>007-043-251800-
WEST OF THE DIVIDE

CITY           SKY/WX    TMP DP  RH WIND       PRES   REMARKS
KALISPELL      CLOUDY    47  41  80 SE9       29.81S
MISSOULA       CLOUDY    47  38  71 NW5       29.86S
BUTTE          CLOUDY    40  30  67 NW12      29.82R
MULLAN PASS    SNOW      31  31 100 VRB6      29.83R VSB 1/4 WCI  25
ANACONDA         N/A     43  32  65 N8        29.83R
DEER LODGE       N/A     46  34  61 S7        29.85R
EUREKA           N/A     48  36  61 SE6       29.80S
HAMILTON         N/A     46  34  61 SE6       29.85F
$$

MTZ008-052>055-251800-
SOUTHWEST MONTANA

CITY           SKY/WX    TMP DP  RH WIND       PRES   REMARKS
BOZEMAN        CLOUDY    43  40  89 S5        29.81R
DILLON         CLOUDY    43  32  65 W6        29.80R
W YELLOWSTONE  CLOUDY    39  28  65 NE8       29.76R
$$

MTZ009-010-012-014-046-048-049-054-251800-
EAST SLOPES AND CENTRAL MONTANA

CITY           SKY/WX    TMP DP  RH WIND       PRES   REMARKS
CUT BANK       CLOUDY    36  36 100 SE7       29.80S FOG     WCI  30
GREAT FALLS    LGT RAIN  42  39  89 E6        29.81R
MALMSTROM AFB  CLOUDY    42  39  90 E3        29.81S
HELENA         CLOUDY    50  39  66 W8        29.79F
AUGUSTA        PTSUNNY   43  38  83 SE7       29.78F
BOWMANS CRNR   PTSUNNY   42  35  77 S6        29.77S
CHOTEAU          N/A     43  39  87 S3        29.81S
FAIRFIELD      CLOUDY    42  37  82 CALM      29.79S
POWER          DRIZZLE   40  38  95 SE3       29.80R
RAYNESFORD     CLOUDY    40  37  88 E9        29.81R
ULM            PTSUNNY   44  39  82 N7        29.80S
$$

MTZ011-013-016-021-045-047-050-051-251800-
NORTH CENTRAL MONTANA

CITY           SKY/WX    TMP DP  RH WIND       PRES   REMARKS
HAVRE          CLOUDY    37  29  72 E17       29.86S WCI  27
LEWISTOWN      CLOUDY    38  31  76 E12       29.82R WCI  30
CHINOOK          N/A     36  27  69 E13G24    29.90S WCI  27
DENTON         FLURRIES  37  35  95 MISG      29.80S
FORT BENTON      N/A     41  36  81 MISG      29.84S
GEYSER         CLOUDY    37  37 100 E6        29.81S
GRASS RANGE    PTSUNNY   31  31 100 E9        29.83R FOG     WCI  23
JUDITH GAP     FOG       32  32  99 S17       29.81R VSB 1/4 WCI  21
STANFORD       CLOUDY    36  35  96 E3        29.81S
WINIFRED       CLOUDY    32 N/A N/A E18       29.84R FOG     WCI  20
$$

MTZ017>020-022>027-061-062-251800-
NORTHEAST MONTANA

CITY           SKY/WX    TMP DP  RH WIND       PRES   REMARKS
GLASGOW        CLOUDY    33  24  69 SE12      29.96R WCI  24
JORDAN           N/A     30  26  85 E8        29.92R WCI  22
SIDNEY         CLOUDY    32  25  75 NE12      29.96S WCI  23
WOLF POINT     CLOUDY    35  24  64 E12       29.98R WCI  27
PLENTYWOOD       N/A     32  23  69 NE8       29.98R WCI  25
POPLAR           N/A     34  23  64 NE12      29.98R WCI  25
$$

MTZ028>42-056>058-251800-
SOUTHCENTRAL AND SOUTHEAST MONTANA

CITY           SKY/WX    TMP DP  RH WIND       PRES   REMARKS
BAKER          CLOUDY    28  24  85 NE12      29.88R WCI  18
BILLINGS       CLOUDY    32  30  92 E13       29.86R WCI  22
LIVINGSTON     CLOUDY    39  37  92 E10       29.80R
MILES CITY     CLOUDY    32  26  78 NE15      29.90R WCI  22
BIG TIMBER     CLOUDY    36  36 100 SE7       29.85R WCI  30
LAUREL           N/A     34  32  93 NE9       29.87R WCI  26
$$

REGIONAL REPORTS...DAKOTAS

CITY           SKY/WX    TMP DP  RH WIND       PRES   REMARKS
WILLISTON      CLOUDY    35  22  58 E8        29.97R WCI  29
MINOT          CLOUDY    34  25  69 N16       29.93R WCI  24
DICKINSON      CLOUDY    26  23  88 N17       29.85S WCI  13
BEACH          CLOUDY    27  27 100 NE14      29.92R WCI  15
TIOGA          CLOUDY    30  25  80 NE15G22   29.96R WCI  19
WATFORD CITY   CLOUDY    32  23  69 NE15      29.94S WCI  22
BISMARCK       CLOUDY    32  27  81 N13       29.87F WCI  22
GRAND FORKS    CLOUDY    35  29  78 N28G33    29.81S WCI  22
FARGO          CLOUDY    36  31  82 N18G32    29.75R WCI  26
BUFFALO SD       N/A     28  26  92 NE18      29.75R WCI  15
RAPID CITY     SNOW      30  28  92 N16       29.75R VSB 1/2 WCI  19
$$

REGIONAL REPORTS...WYOMING/IDAHO/WASHINGTON

CITY           SKY/WX    TMP DP  RH WIND       PRES   REMARKS
GILLETTE       LGT SNOW  28  32 100 N20       29.74R WCI  15
SHERIDAN       SNOW      32  30  92 N10       29.81R VSB 1/2 WCI  24
CODY           MIX PCPN  34  30  85 N14       29.80R WCI  25
YELLOWSTONE LA   N/A     35  27  72 CALM      29.76R
IDAHO FALLS    CLOUDY    42  38  85 NW15      29.79R
SALMON         CLOUDY    46  34  61 CALM      29.84S
BOISE          MOSUNNY   49  36  61 N17       29.94R
SPOKANE        FOG       42  40  92 SW15      29.89S VSB 1/2
$$

REGIONAL REPORTS...ALBERTA

CITY           SKY/WX    TMP DP  RH WIND       PRES   REMARKS
EDMONTON       FLURRIES  34  28  80 N3        29.93S
CALGARY        LGT SNOW  32  27  80 N13       29.86S WCI  22
LETHBRIDGE     LGT RAIN  37  36  93 W7        29.81S
MEDICINE HAT   SNOWSHWR  37  34  87 E9G17     29.86R WCI  31
CARDSTON         N/A     32  34 100 N13G20      N/A  WCI  22
MILK RIVER       N/A     39  37  93 S13         N/A  WCI  32
$$

REGIONAL REPORTS...SASKATCHEWAN

CITY           SKY/WX    TMP DP  RH WIND       PRES   REMARKS
SWIFT CURRENT  CLOUDY    28  27  93 E13       29.94S WCI  18
REGINA         PTSUNNY   30  18  59 NE9       30.03S WCI  22
SASKATOON      PTSUNNY   34  21  60 E13G21    30.09R WCI  25
CYPRESS HILLS    N/A     25  23  93 SE7         N/A  WCI  17
VAL MARIE        N/A     32  25  74 E10         N/A  WCI  24
ASSINIBOIA       N/A     32  30  93 SE9         N/A  WCI  24
$$



USA.gov is the U.S. government's official web portal to all federal, state and local government web resources and services.